This is the latest recevied weather packets stored in our database for station/object SQ5AAG-2. If no packets are shown the sender has not sent any weather packets the latest 10 day(s).
| Time | Temp. | Humidity | Pressure | Rain* | Wind** | Luminosity | Snow |
|---|---|---|---|---|---|---|---|
| 1787413239 | 15.56° C | 84% | 997.4 hPa | 0.51 mm | - | - | - |
| 1787412938 | 15.56° C | 84% | 997.4 hPa | 0.51 mm | - | - | - |
| 1787412638 | 15.56° C | 83% | 997.3 hPa | 0.51 mm | - | - | - |
| 1787412338 | 15.56° C | 83% | 997.1 hPa | 0.51 mm | - | - | - |
| 1787412037 | 15.56° C | 82% | 997 hPa | 0.51 mm | - | - | - |
| 1787411738 | 15.56° C | 82% | 997 hPa | 0.51 mm | - | - | - |
| 1787411505 | 15.56° C | 81% | 996.9 hPa | 0.51 mm | - | - | - |
| 1787411436 | 15.56° C | 81% | 996.9 hPa | 0.51 mm | - | - | - |
| 1787411170 | 15.56° C | 81% | 996.9 hPa | 0 mm | - | - | - |
| 1787411137 | 15.56° C | 81% | 996.9 hPa | 0 mm | - | - | - |
| 1787410876 | 15.56° C | 80% | 996.8 hPa | 0 mm | - | - | - |
| 1787410836 | 15.56° C | 80% | 996.8 hPa | 0 mm | - | - | - |
| 1787410535 | 15.56° C | 80% | 996.9 hPa | 0 mm | - | - | - |
| 1787410324 | 16.11° C | 79% | 997 hPa | 0 mm | - | - | - |
| 1787410235 | 16.11° C | 79% | 997 hPa | 0 mm | - | - | - |
| 1787409972 | 16.67° C | 78% | 997 hPa | 0 mm | - | - | - |
| 1787409935 | 16.67° C | 78% | 997 hPa | 0 mm | - | - | - |
| 1787409635 | 17.22° C | 76% | 997 hPa | 0 mm | - | - | - |
| 1787409334 | 18.33° C | 73% | 997 hPa | 0 mm | - | - | - |
| 1787409034 | 18.33° C | 71% | 996.9 hPa | 0 mm | - | - | - |
| 1787408771 | 18.89° C | 68% | 996.7 hPa | 0 mm | - | - | - |
| 1787408734 | 18.89° C | 68% | 996.7 hPa | 0 mm | - | - | - |
| 1787408469 | 19.44° C | 67% | 996.8 hPa | 0 mm | - | - | - |
| 1787408433 | 19.44° C | 67% | 996.8 hPa | 0 mm | - | - | - |
| 1787408133 | 19.44° C | 66% | 996.7 hPa | 0 mm | - | - | - |
* Rain latest hour (hover to see other rain measurements)
** Current wind speed in m/s (hover to see current wind gust speed)